IU7LMH-13 Weather Reports


Display with metric or nautical units.
time (UTC)temp
F
wind
direction
speed
MPH
gust
MPH
rain 1hr
in
rain 24hr
in
rain mn
in
humidity
%
barometer
mb
20260509104937 74 158 5.0 8.0 0.00 0.00 0.00 54 1016.2
20260509104739 74 158 4.0 6.0 0.00 0.00 0.00 57 1016.3
20260509104545 74 158 4.0 7.0 0.00 0.00 0.00 56 1016.3
20260509104338 74 158 4.0 8.0 0.00 0.00 0.00 59 1016.2
20260509104138 74 135 4.0 7.0 0.00 0.00 0.00 60 1016.3
20260509103940 74 180 4.0 8.0 0.00 0.00 0.00 61 1016.4
20260509103738 73 158 4.0 8.0 0.00 0.00 0.00 62 1016.3
20260509103543 73 135 5.0 7.0 0.00 0.00 0.00 62 1016.5
20260509103340 73 158 4.0 9.0 0.00 0.00 0.00 60 1016.3
20260509103139 73 202 4.0 6.0 0.00 0.00 0.00 60 1016.2
20260509102739 72 135 6.0 9.0 0.00 0.00 0.00 60 1016.4
20260509102543 72 112 4.0 6.0 0.00 0.00 0.00 61 1016.2
20260509102339 72 180 4.0 8.0 0.00 0.00 0.00 61 1016.4
20260509102139 72 135 3.0 4.0 0.00 0.00 0.00 62 1016.4
20260509101543 73 135 5.0 8.0 0.00 0.00 0.00 62 1016.4
20260509101338 73 112 4.0 8.0 0.00 0.00 0.00 62 1016.4
20260509101138 74 135 4.0 7.0 0.00 0.00 0.00 63 1016.5
20260509100942 74 112 4.0 8.0 0.00 0.00 0.00 61 1016.5
20260509100542 74 158 4.0 7.0 0.00 0.00 0.00 60 1016.4
20260509100338 73 180 4.0 6.0 0.00 0.00 0.00 61 1016.4
20260509100140 73 90 4.0 7.0 0.00 0.00 0.00 61 1016.6
20260509095939 73 90 4.0 6.0 0.00 0.00 0.00 60 1016.4
20260509095738 73 135 4.0 7.0 0.00 0.00 0.00 61 1016.5
20260509095544 73 135 4.0 6.0 0.00 0.00 0.00 61 1016.6
20260509095339 72 112 4.0 6.0 0.00 0.00 0.00 59 1016.4
20260509095138 72 158 4.0 6.0 0.00 0.00 0.00 60 1016.3
20260509094938 73 112 5.0 9.0 0.00 0.00 0.00 62 1016.6
20260509094738 73 158 5.0 8.0 0.00 0.00 0.00 61 1016.2
20260509094340 72 158 3.0 6.0 0.00 0.00 0.00 64 1016.4
20260509094137 72 90 5.0 9.0 0.00 0.00 0.00 61 1016.3
20260509093941 72 135 4.0 6.0 0.00 0.00 0.00 63 1016.4
20260509093542 73 180 5.0 9.0 0.00 0.00 0.00 62 1016.4
20260509093338 73 112 4.0 7.0 0.00 0.00 0.00 63 1016.4
20260509093138 73 135 2.0 4.0 0.00 0.00 0.00 63 1016.3
20260509092938 72 225 2.0 4.0 0.00 0.00 0.00 63 1016.3
20260509092739 72 135 6.0 8.0 0.00 0.00 0.00 62 1016.3
20260509092546 72 135 2.0 4.0 0.00 0.00 0.00 60 1016.2
20260509092337 72 135 4.0 6.0 0.00 0.00 0.00 62 1016.1
20260509092140 72 90 4.0 4.0 0.00 0.00 0.00 61 1016.2
20260509091939 74 135 4.0 7.0 0.00 0.00 0.00 62 1016.3
20260509091738 74 112 2.0 4.0 0.00 0.00 0.00 60 1016.3
20260509091546 73 90 2.0 4.0 0.00 0.00 0.00 61 1016.4
20260509091138 73 135 4.0 7.0 0.00 0.01 0.00 61 1016.3
20260509090939 74 112 4.0 7.0 0.00 0.01 0.00 60 1016.3
20260509090546 74 68 2.0 4.0 0.00 0.01 0.00 49 1016.1
20260509090339 74 22 2.0 4.0 0.00 0.01 0.00 50 1016.2
20260509090137 73 22 2.0 4.0 0.00 0.02 0.00 49 1016.3
20260509085939 73 68 3.0 6.0 0.00 0.02 0.00 52 1016.3
20260509085738 74 270 2.0 4.0 0.00 0.02 0.00 49 1016.2
20260509085545 74 338 3.0 4.0 0.00 0.02 0.00 52 1016.4
20260509085339 74 338 3.0 6.0 0.00 0.03 0.00 49 1016.4
20260509085138 74 248 2.0 2.0 0.00 0.03 0.00 49 1016.5
20260509084938 74 22 2.0 4.0 0.00 0.03 0.00 50 1016.3
20260509084545 74 315 3.0 4.0 0.00 0.04 0.00 51 1016.5
20260509084339 74 45 1.0 2.0 0.00 0.04 0.00 49 1016.5
20260509084137 74 292 2.0 4.0 0.00 0.04 0.00 47 1016.4
20260509083940 73 158 2.0 4.0 0.00 0.04 0.00 46 1016.4
20260509083738 73 22 4.0 8.0 0.00 0.05 0.00 48 1016.4
20260509083542 74 292 2.0 4.0 0.00 0.05 0.00 49 1016.5
20260509083339 74 338 2.0 4.0 0.00 0.05 0.00 46 1016.5
20260509082939 74 22 2.0 4.0 0.00 0.07 0.00 51 1016.2
20260509082738 74 292 1.0 2.0 0.00 0.07 0.00 49 1016.4
20260509082544 74 338 2.0 2.0 0.00 0.08 0.00 49 1016.4
20260509082339 74 315 2.0 4.0 0.00 0.08 0.00 51 1016.3
20260509082138 73 292 0.0 2.0 0.00 0.09 0.00 48 1016.6
20260509081939 73 292 2.0 4.0 0.00 0.09 0.00 49 1016.5
20260509081740 73 158 2.0 4.0 0.00 0.09 0.00 49 1016.5
20260509081338 73 292 1.0 2.0 0.00 0.10 0.00 54 1016.5
20260509081138 72 45 1.0 6.0 0.00 0.11 0.00 56 1016.5
20260509080940 72 112 2.0 4.0 0.00 0.11 0.00 57 1016.5
20260509080737 73 292 2.0 2.0 0.00 0.12 0.00 57 1016.6
20260509080541 73 315 2.0 2.0 0.00 0.12 0.00 58 1016.4
20260509080338 72 135 1.0 2.0 0.00 0.14 0.00 59 1016.6
20260509075940 73 338 1.0 4.0 0.00 0.14 0.00 60 1016.5
20260509075739 74 315 2.0 4.0 0.00 0.15 0.00 58 1016.6
20260509075339 73 225 1.0 2.0 0.00 0.16 0.00 59 1016.7
20260509075138 72 338 0.0 0.0 0.00 0.17 0.00 60 1016.5
20260509074939 71 270 1.0 2.0 0.00 0.18 0.00 61 1016.6
20260509074739 71 270 2.0 2.0 0.00 0.18 0.00 61 1016.8
20260509074543 70 315 0.0 2.0 0.00 0.21 0.00 63 1016.7
20260509074338 70 292 1.0 2.0 0.00 0.21 0.00 65 1016.7
20260509073941 70 315 3.0 4.0 0.00 0.23 0.00 64 1016.6
20260509073738 70 292 1.0 2.0 0.00 0.24 0.00 65 1016.6
20260509073553 69 248 2.0 4.0 0.00 0.25 0.00 66 1016.5
20260509073338 69 248 2.0 4.0 0.00 0.27 0.00 67 1016.7
20260509073139 69 270 2.0 4.0 0.00 0.30 0.00 66 1016.6
20260509072939 69 225 2.0 4.0 0.00 0.31 0.00 66 1016.6
20260509072737 69 292 2.0 4.0 0.00 0.31 0.00 65 1016.7
20260509072543 69 248 1.0 2.0 0.00 0.31 0.00 65 1016.7
20260509072338 68 180 2.0 2.0 0.00 0.34 0.00 66 1016.5
20260509072138 68 202 2.0 4.0 0.00 0.34 0.00 67 1016.7
20260509071738 67 315 2.0 4.0 0.00 1.07 0.00 67 1016.5
20260509071543 67 270 3.0 4.0 0.00 0.37 0.00 68 1016.6
20260509071337 67 248 4.0 7.0 0.00 0.38 0.00 68 1016.6
20260509071138 68 225 3.0 4.0 0.00 0.40 0.00 68 1016.6
20260509070541 67 135 2.0 4.0 0.00 0.43 0.00 69 1016.7
20260509070138 67 248 3.0 4.0 0.00 0.44 0.00 69 1016.6
20260509065939 67 158 4.0 6.0 0.00 0.44 0.00 70 1016.4
20260509065738 67 270 3.0 6.0 0.00 0.46 0.00 69 1016.5
20260509065337 66 270 4.0 6.0 0.00 0.47 0.00 70 1016.5
20260509065139 67 270 3.0 4.0 0.00 0.48 0.00 69 1016.3
20260509064938 67 270 2.0 4.0 0.00 0.48 0.00 68 1016.4
20260509064739 66 248 4.0 6.0 0.00 0.48 0.00 68 1016.3
20260509064339 66 270 4.0 6.0 0.00 0.49 0.00 69 1016.4
20260509064136 66 292 2.0 2.0 0.00 0.50 0.00 68 1016.4
20260509063941 66 248 4.0 7.0 0.00 0.50 0.00 69 1016.5
20260509063738 66 270 4.0 4.0 0.00 0.51 0.00 68 1016.3
20260509063541 66 315 1.0 2.0 0.00 0.51 0.00 69 1016.4
20260509063337 65 270 2.0 4.0 0.00 0.51 0.00 70 1016.3
20260509063137 65 292 4.0 8.0 0.00 0.51 0.00 69 1016.5
20260509062937 65 270 4.0 6.0 0.00 0.51 0.00 69 1016.6
20260509062737 65 248 2.0 4.0 0.00 0.53 0.00 69 1016.3
20260509062338 65 292 2.0 4.0 0.00 0.53 0.00 70 1016.5
20260509062137 65 315 2.0 4.0 0.00 0.53 0.00 70 1016.7
20260509061936 65 270 4.0 6.0 0.00 0.53 0.00 70 1016.5
20260509061738 65 292 2.0 4.0 0.00 0.53 0.00 71 1016.7
20260509061545 65 292 4.0 6.0 0.00 0.53 0.00 70 1016.5
20260509061339 65 292 5.0 7.0 0.00 0.53 0.00 70 1016.5
20260509061138 65 292 3.0 7.0 0.00 0.53 0.00 71 1016.5
20260509060940 64 315 2.0 4.0 0.00 0.54 0.00 72 1016.6
20260509060738 64 292 4.0 7.0 0.00 0.54 0.00 71 1016.6
20260509060542 64 315 5.0 9.0 0.00 0.54 0.00 71 1016.7
20260509060336 64 315 5.0 9.0 0.00 0.54 0.00 71 1016.7
20260509060137 64 315 5.0 9.0 0.00 0.54 0.00 71 1016.5
20260509055938 64 270 4.0 6.0 0.00 0.54 0.00 72 1016.7
20260509055738 64 270 5.0 7.0 0.00 0.54 0.00 72 1016.6
20260509055543 63 292 4.0 8.0 0.00 0.54 0.00 72 1016.5
20260509055337 63 0 4.0 7.0 0.00 0.55 0.00 73 1016.7
20260509054938 63 338 4.0 6.0 0.00 0.55 0.00 74 1016.6
20260509054737 63 270 4.0 7.0 0.00 0.55 0.00 74 1016.6
20260509054543 62 292 5.0 8.0 0.00 0.56 0.00 74 1016.6
20260509054338 62 338 4.0 7.0 0.00 0.56 0.00 76 1016.6
20260509054137 62 292 3.0 4.0 0.00 0.57 0.00 77 1016.5
20260509053941 62 270 2.0 4.0 0.00 0.57 0.00 78 1016.6
20260509053738 62 315 1.0 2.0 0.00 0.57 0.00 79 1016.6
20260509053541 61 292 1.0 2.0 0.00 0.57 0.00 80 1016.5
20260509052937 61 292 2.0 2.0 0.00 0.57 0.00 81 1016.5
20260509052738 60 315 2.0 4.0 0.00 0.57 0.00 81 1016.6
20260509052545 60 292 1.0 2.0 0.00 0.57 0.00 81 1016.8
20260509052338 60 292 2.0 2.0 0.00 0.57 0.00 81 1016.4
20260509052139 60 270 2.0 2.0 0.00 0.57 0.00 81 1016.4
20260509051737 60 248 2.0 4.0 0.00 0.57 0.00 82 1016.2
20260509051546 60 248 0.0 0.0 0.00 0.57 0.00 82 1016.6
20260509051340 60 248 1.0 2.0 0.00 0.57 0.00 83 1016.3
20260509051137 60 292 1.0 2.0 0.00 0.57 0.00 83 1016.4
20260509050939 60 292 2.0 2.0 0.00 0.57 0.00 83 1016.5
20260509050737 60 270 2.0 2.0 0.00 0.57 0.00 83 1016.5
20260509050541 59 292 1.0 2.0 0.00 0.57 0.00 83 1016.5
20260509050338 59 292 2.0 2.0 0.00 0.57 0.00 83 1016.3
20260509050137 59 292 2.0 2.0 0.00 0.57 0.00 83 1016.5
20260509045938 59 292 2.0 2.0 0.00 0.57 0.00 84 1016.3
20260509045739 59 292 1.0 2.0 0.00 0.57 0.00 84 1016.3
20260509045543 59 315 0.0 0.0 0.00 0.57 0.00 84 1016.3
20260509045338 59 292 0.0 0.0 0.00 0.57 0.00 84 1016.3
20260509045136 59 292 0.0 0.0 0.00 0.57 0.00 84 1016.3
20260509044738 59 315 0.0 0.0 0.00 0.57 0.00 84 1016.1
20260509044545 59 315 1.0 2.0 0.00 0.57 0.00 84 1016.1
20260509044337 59 292 0.0 0.0 0.00 0.57 0.00 84 1016.2
20260509044138 59 292 0.0 0.0 0.00 0.57 0.00 84 1016.1
20260509043939 59 292 0.0 0.0 0.00 0.57 0.00 84 1016.3
20260509043737 59 315 0.0 0.0 0.00 0.57 0.00 84 1016.2
20260509043541 59 315 0.0 0.0 0.00 0.57 0.00 84 1016.4
20260509043338 59 315 0.0 0.0 0.00 0.57 0.00 84 1016.1
20260509043137 59 315 0.0 0.0 0.00 0.57 0.00 84 1016.3
20260509042938 59 338 0.0 0.0 0.00 0.57 0.00 84 1016.1
20260509042737 59 338 0.0 0.0 0.00 0.57 0.00 84 1016.2
20260509042545 59 292 2.0 2.0 0.00 0.57 0.00 84 1016.1
20260509042138 58 292 2.0 2.0 0.00 0.57 0.00 84 1016.1
20260509041938 58 292 2.0 2.0 0.00 0.59 0.00 84 1016.1
20260509041738 58 292 2.0 4.0 0.00 1.07 0.00 84 1015.9
20260509041543 58 292 2.0 4.0 0.00 0.59 0.00 84 1016.0
20260509041338 58 292 2.0 2.0 0.00 0.59 0.00 84 1016.0
20260509041136 58 292 2.0 2.0 0.00 0.59 0.00 84 1015.9
20260509040940 58 270 2.0 4.0 0.00 0.60 0.00 85 1016.0
20260509040338 58 292 3.0 4.0 0.00 0.60 0.00 85 1016.0
20260509040147 58 248 3.0 4.0 0.00 0.60 0.00 86 1015.9
20260509035936 58 292 2.0 4.0 0.00 0.60 0.00 86 1016.0
20260509035544 58 270 3.0 4.0 0.00 0.60 0.00 86 1016.2
20260509035138 58 292 2.0 4.0 0.00 0.60 0.00 86 1016.2
20260509034938 58 292 2.0 4.0 0.00 0.60 0.00 86 1016.0
20260509034544 58 270 3.0 4.0 0.00 0.60 0.00 86 1015.9
20260509034339 58 270 4.0 7.0 0.00 0.60 0.00 86 1016.1
20260509034138 58 292 3.0 4.0 0.00 0.60 0.00 86 1016.0
20260509033940 58 270 4.0 6.0 0.00 0.60 0.00 87 1015.9
20260509033737 58 270 3.0 4.0 0.00 0.60 0.00 87 1015.9
20260509033541 58 292 3.0 4.0 0.00 0.61 0.00 86 1015.9
20260509033339 58 270 2.0 4.0 0.00 0.61 0.00 86 1015.9
20260509033138 58 270 3.0 4.0 0.00 0.61 0.00 86 1016.1
20260509032737 58 270 3.0 4.0 0.00 0.61 0.00 86 1016.1
20260509032543 58 292 2.0 4.0 0.00 0.61 0.00 85 1015.9
20260509032137 58 292 3.0 4.0 0.00 0.61 0.00 85 1015.9
20260509031937 58 270 2.0 4.0 0.00 0.61 0.00 85 1015.9
20260509031738 58 270 3.0 4.0 0.00 0.61 0.00 85 1016.0
20260509031337 58 315 4.0 4.0 0.00 0.61 0.00 85 1015.7
20260509031138 58 270 3.0 4.0 0.00 0.62 0.00 85 1015.8
20260509030338 58 270 4.0 7.0 0.00 0.62 0.00 86 1015.7
20260509030137 58 292 2.0 4.0 0.00 0.62 0.00 86 1016.0
20260509025937 58 292 3.0 4.0 0.00 0.62 0.00 86 1015.9
20260509025738 58 292 3.0 4.0 0.00 0.62 0.00 86 1015.8
20260509025544 58 292 3.0 6.0 0.00 0.62 0.00 87 1015.7
20260509025339 58 292 3.0 4.0 0.00 0.62 0.00 87 1015.9
20260509025138 58 315 2.0 2.0 0.00 0.62 0.00 87 1015.7
20260509024936 58 315 2.0 2.0 0.00 0.62 0.00 87 1015.7
20260509024737 58 292 1.0 2.0 0.00 0.62 0.00 87 1015.6
20260509024544 58 315 2.0 4.0 0.00 0.62 0.00 87 1015.8
20260509024339 58 292 2.0 4.0 0.00 0.62 0.00 87 1015.6
20260509024138 58 292 2.0 2.0 0.00 0.62 0.00 87 1015.7
20260509023941 58 292 2.0 4.0 0.00 0.62 0.00 87 1015.8
20260509023737 58 292 2.0 2.0 0.00 0.62 0.00 87 1015.7
20260509023541 58 292 2.0 4.0 0.00 0.62 0.00 87 1015.8
20260509023339 58 315 2.0 4.0 0.00 0.62 0.00 88 1015.8
20260509023138 58 315 2.0 2.0 0.00 0.62 0.00 88 1015.7
20260509022937 58 292 4.0 4.0 0.00 0.62 0.00 88 1015.6
20260509022737 57 315 2.0 4.0 0.00 0.62 0.00 88 1015.6
20260509022338 57 315 3.0 4.0 0.00 0.62 0.00 88 1015.5
20260509022138 57 292 3.0 4.0 0.00 0.62 0.00 89 1015.6
20260509021738 57 315 2.0 4.0 0.00 0.62 0.00 89 1015.6
20260509021542 57 292 2.0 4.0 0.00 0.62 0.00 89 1015.8
20260509021339 57 292 2.0 4.0 0.00 0.62 0.00 89 1015.5
20260509021137 57 292 2.0 4.0 0.00 0.62 0.00 89 1015.5
20260509020941 57 292 2.0 2.0 0.00 0.62 0.00 89 1015.4
20260509020738 57 292 2.0 2.0 0.00 0.62 0.00 89 1015.6
20260509020543 57 292 1.0 2.0 0.00 0.62 0.00 89 1015.6
20260509020339 57 292 0.0 2.0 0.00 0.62 0.00 89 1015.5
20260509020138 57 292 1.0 2.0 0.00 0.62 0.00 89 1015.4
20260509015938 57 270 2.0 2.0 0.00 0.62 0.00 89 1015.6
20260509015738 57 292 2.0 2.0 0.00 0.62 0.00 89 1015.5
20260509015543 57 270 2.0 2.0 0.00 0.62 0.00 89 1015.7
20260509015138 57 292 2.0 4.0 0.00 0.62 0.00 89 1015.6
20260509014938 57 292 1.0 2.0 0.00 0.62 0.00 89 1015.6
20260509014738 57 270 2.0 2.0 0.00 1.07 0.00 89 1015.6
20260509014545 57 292 2.0 4.0 0.00 0.62 0.00 89 1015.6
20260509014136 57 270 2.0 4.0 0.00 0.62 0.00 89 1015.5
20260509013737 57 270 2.0 4.0 0.00 0.62 0.00 88 1015.6
20260509013542 57 270 2.0 2.0 0.00 0.62 0.00 88 1015.5
20260509013339 57 292 2.0 2.0 0.00 0.62 0.00 88 1015.5
20260509013138 57 248 0.0 0.0 0.00 0.62 0.00 88 1015.7
20260509012737 57 292 2.0 2.0 0.00 0.62 0.00 88 1015.5
20260509012545 57 292 1.0 2.0 0.00 0.62 0.00 88 1015.7
20260509012339 57 292 2.0 2.0 0.00 0.62 0.00 88 1015.6
20260509011938 57 292 2.0 4.0 0.00 0.62 0.00 87 1015.4
20260509011738 57 292 2.0 4.0 0.00 0.62 0.00 87 1015.4
20260509011546 58 292 2.0 4.0 0.00 0.62 0.00 87 1015.4
20260509011339 58 292 2.0 4.0 0.00 0.62 0.00 87 1015.5
20260509011138 58 292 2.0 4.0 0.00 0.62 0.00 87 1015.3
20260509010939 58 292 2.0 4.0 0.00 0.62 0.00 87 1015.5
20260509010737 58 292 2.0 2.0 0.00 0.62 0.00 86 1015.5
20260509010541 58 315 2.0 4.0 0.00 0.62 0.00 86 1015.5
20260509010338 58 292 2.0 4.0 0.00 0.62 0.00 86 1015.5
20260509010137 58 292 2.0 2.0 0.00 0.62 0.00 86 1015.5
20260509005939 58 292 2.0 2.0 0.00 0.62 0.00 86 1015.5
20260509005543 58 315 2.0 2.0 0.00 0.62 0.00 85 1015.6
20260509005339 59 292 2.0 4.0 0.00 0.62 0.00 85 1015.7
20260509004938 59 315 2.0 2.0 0.00 0.62 0.00 85 1015.5
20260509004739 59 315 2.0 4.0 0.00 0.62 0.00 85 1015.5
20260509004545 59 292 2.0 2.0 0.00 0.62 0.00 85 1015.6
20260509004338 59 292 2.0 2.0 0.00 0.62 0.00 85 1015.6
20260509004136 59 292 2.0 4.0 0.00 0.62 0.00 85 1015.5
20260509003939 59 292 2.0 2.0 0.00 0.62 0.00 85 1015.6
20260509003542 59 292 2.0 2.0 0.00 0.62 0.00 85 1015.6
20260509003338 59 292 2.0 2.0 0.00 0.62 0.00 85 1015.9
20260509003138 59 270 2.0 4.0 0.00 0.62 0.00 85 1015.6
20260509002937 59 292 2.0 4.0 0.00 0.62 0.00 86 1015.8
20260509002738 59 292 4.0 4.0 0.00 0.62 0.00 86 1015.6
20260509002544 59 292 3.0 4.0 0.00 0.62 0.00 86 1015.8
20260509002338 59 270 3.0 4.0 0.00 0.62 0.00 86 1015.8
20260509001937 59 292 2.0 4.0 0.00 0.62 0.00 86 1015.7
20260509001737 59 270 2.0 4.0 0.00 0.62 0.00 86 1015.7
20260509001338 59 292 2.0 4.0 0.00 0.62 0.00 86 1015.8
20260509001137 59 292 2.0 4.0 0.00 0.62 0.00 86 1015.8
20260509000939 59 270 2.0 4.0 0.00 0.62 0.00 86 1015.8
20260509000737 59 270 2.0 2.0 0.00 0.62 0.00 86 1015.7
20260509000544 59 292 1.0 2.0 0.00 0.62 0.00 86 1015.8
20260509000340 59 292 1.0 2.0 0.00 0.62 0.00 86 1015.9
20260508235938 59 270 2.0 2.0 0.00 0.62 0.00 86 1015.8
20260508235739 59 270 2.0 2.0 0.00 0.62 0.00 86 1015.8
20260508235544 59 270 2.0 2.0 0.00 0.62 0.00 86 1015.7
20260508235339 59 292 2.0 2.0 0.00 0.62 0.00 86 1015.8
20260508235138 59 292 2.0 4.0 0.00 0.62 0.00 86 1015.5
20260508234938 59 270 2.0 4.0 0.00 0.62 0.00 86 1015.5
20260508234545 59 270 2.0 2.0 0.00 0.62 0.00 86 1015.8
20260508234340 59 292 2.0 2.0 0.00 0.62 0.00 86 1015.6
20260508234138 59 292 2.0 2.0 0.00 0.62 0.00 86 1015.7
20260508233541 59 315 1.0 2.0 0.00 0.62 0.00 86 1015.9
20260508233339 59 315 0.0 0.0 0.00 0.62 0.00 86 1015.7
20260508233136 59 315 0.0 2.0 0.00 0.62 0.00 86 1015.8
20260508232937 59 315 0.0 2.0 0.00 0.62 0.00 86 1015.7
20260508232737 59 315 1.0 2.0 0.00 0.62 0.00 86 1015.7
20260508232543 59 315 0.0 2.0 0.00 0.62 0.00 86 1015.7
20260508232137 59 315 2.0 2.0 0.00 0.62 0.00 85 1015.8
20260508231939 59 292 1.0 2.0 0.00 0.62 0.00 85 1015.7
20260508231739 59 292 2.0 2.0 0.00 0.62 0.00 85 1015.8
20260508231544 59 292 2.0 2.0 0.00 0.62 0.00 85 1015.9
20260508231138 59 315 1.0 2.0 0.00 0.62 0.00 85 1015.7
20260508230940 59 315 1.0 2.0 0.00 0.62 0.00 85 1015.7
20260508230738 59 315 2.0 2.0 0.00 0.62 0.00 85 1015.8
20260508230541 59 315 1.0 2.0 0.00 0.62 0.00 85 1015.8
20260508230338 59 315 2.0 4.0 0.00 0.62 0.00 85 1015.7
20260508230136 59 315 2.0 2.0 0.00 0.62 0.00 85 1015.6
20260508225937 59 315 1.0 2.0 0.00 0.62 0.00 85 1015.7
20260508225738 59 292 1.0 2.0 0.00 0.62 0.00 85 1015.7
20260508225543 59 315 2.0 2.0 0.00 0.62 0.00 85 1015.8
20260508225138 59 315 2.0 2.0 0.00 0.62 0.00 86 1015.8
20260508224938 59 315 2.0 4.0 0.00 0.62 0.00 86 1015.6
20260508224738 59 315 2.0 2.0 0.00 0.62 0.00 86 1015.6
20260508224544 59 292 2.0 2.0 0.00 0.62 0.00 86 1015.8
20260508224338 59 292 2.0 2.0 0.00 0.62 0.00 86 1015.7
20260508224137 59 292 1.0 2.0 0.00 0.62 0.00 86 1015.9
20260508223941 59 315 1.0 2.0 0.00 0.62 0.00 86 1015.9
20260508223739 59 292 2.0 2.0 0.00 0.62 0.00 86 1015.7
20260508223541 59 292 1.0 2.0 0.00 0.62 0.00 87 1015.9
20260508223339 59 292 2.0 2.0 0.00 0.62 0.00 87 1015.9
20260508223137 59 292 2.0 2.0 0.00 0.62 0.00 87 1016.1
20260508222938 59 315 2.0 2.0 0.00 0.62 0.00 87 1015.9
20260508222739 59 292 1.0 2.0 0.00 0.62 0.00 87 1015.9
20260508222544 59 292 2.0 2.0 0.00 0.62 0.00 87 1015.8
20260508222138 59 292 2.0 4.0 0.00 0.62 0.00 87 1015.6
20260508221937 59 292 2.0 2.0 0.00 0.62 0.00 87 1015.7
20260508221739 59 292 1.0 2.0 0.00 0.62 0.00 87 1015.8
20260508221543 59 315 2.0 4.0 0.00 0.62 0.00 87 1015.8
20260508221339 59 315 2.0 2.0 0.00 0.62 0.00 87 1015.9
20260508221137 59 292 1.0 2.0 0.00 0.62 0.00 87 1015.9
20260508220738 59 292 0.0 0.0 0.00 0.62 0.00 87 1015.9
20260508220540 59 315 1.0 2.0 0.00 0.62 0.00 87 1015.8
20260508220340 59 292 0.0 2.0 0.00 0.62 0.00 87 1015.8
20260508220139 59 292 1.0 2.0 0.00 0.62 0.62 87 1015.6
20260508215938 59 292 1.0 2.0 0.00 0.62 0.62 87 1015.8
20260508215739 59 292 1.0 2.0 0.00 0.62 0.62 87 1015.7
20260508215542 59 292 1.0 2.0 0.00 0.62 0.62 87 1015.9
20260508215339 59 292 0.0 2.0 0.00 0.62 0.62 86 1015.6
20260508215138 59 270 1.0 2.0 0.00 0.62 0.62 86 1015.8
20260508214938 59 270 1.0 2.0 0.00 0.62 0.62 86 1015.9
20260508214737 59 292 0.0 2.0 0.00 0.62 0.62 86 1015.8
20260508214543 59 292 1.0 2.0 0.00 0.62 0.62 86 1015.9
20260508214338 59 292 1.0 2.0 0.00 0.62 0.62 86 1015.9
20260508214138 59 292 1.0 2.0 0.00 0.62 0.62 86 1015.8
20260508213939 59 292 2.0 4.0 0.00 0.62 0.62 86 1015.7
20260508213737 59 270 2.0 2.0 0.00 0.62 0.62 86 1015.9
20260508213542 59 270 2.0 2.0 0.00 0.62 0.62 86 1015.9
20260508213337 59 270 1.0 2.0 0.00 0.62 0.62 86 1015.8
20260508213137 59 270 1.0 2.0 0.00 0.62 0.62 86 1015.8
20260508212937 59 315 0.0 0.0 0.00 0.62 0.62 86 1015.9
20260508212738 59 338 0.0 0.0 0.00 0.62 0.62 86 1015.7
20260508212543 59 338 0.0 0.0 0.00 0.62 0.62 86 1015.7
20260508212338 59 90 0.0 2.0 0.00 0.62 0.62 86 1015.6
20260508212138 59 112 0.0 0.0 0.00 0.62 0.62 86 1015.5
20260508211939 59 112 0.0 0.0 0.00 0.62 0.62 86 1015.7
20260508211738 59 90 0.0 0.0 0.00 0.62 0.62 86 1015.4
20260508211544 59 45 1.0 2.0 0.00 0.62 0.62 85 1015.6
20260508211338 59 338 0.0 0.0 0.00 0.62 0.62 85 1015.4
20260508211138 59 315 0.0 0.0 0.00 0.62 0.62 85 1015.6
20260508210940 59 292 1.0 2.0 0.00 0.62 0.62 85 1015.4
20260508210737 59 292 2.0 2.0 0.00 0.62 0.62 85 1015.5
20260508210339 59 292 2.0 4.0 0.00 0.62 0.62 85 1015.7
20260508205938 59 292 3.0 4.0 0.00 0.62 0.62 85 1015.5
20260508205738 59 292 3.0 6.0 0.00 0.62 0.62 85 1015.5
20260508205544 59 292 4.0 6.0 0.00 0.62 0.62 85 1015.5
20260508205339 59 292 4.0 6.0 0.00 0.62 0.62 86 1015.4
20260508205137 59 315 4.0 8.0 0.00 0.62 0.62 86 1015.4
20260508204739 59 292 3.0 4.0 0.00 0.62 0.62 86 1015.4
20260508204544 59 270 4.0 4.0 0.00 0.62 0.62 86 1015.4
20260508204338 59 292 3.0 4.0 0.00 0.62 0.62 86 1015.4
20260508203939 59 292 1.0 2.0 0.00 0.62 0.62 86 1015.6
20260508203737 59 315 2.0 4.0 0.00 0.62 0.62 86 1015.4
20260508203541 59 315 2.0 4.0 0.00 0.62 0.62 86 1015.5
20260508203339 59 292 2.0 4.0 0.00 0.62 0.62 86 1015.4
20260508203137 59 292 3.0 4.0 0.00 0.62 0.62 86 1015.5
20260508202937 59 315 3.0 6.0 0.00 0.62 0.62 86 1015.5
20260508202737 59 292 3.0 4.0 0.00 0.62 0.62 86 1015.3
20260508202544 59 292 3.0 6.0 0.00 0.62 0.62 86 1015.4
20260508202340 59 315 3.0 4.0 0.00 0.62 0.62 86 1015.2
20260508202139 59 338 3.0 4.0 0.00 0.62 0.62 86 1015.4
20260508201938 59 315 2.0 4.0 0.00 0.62 0.62 85 1015.4
20260508201738 59 315 3.0 4.0 0.00 0.62 0.62 85 1015.4
20260508201545 59 315 3.0 4.0 0.00 0.62 0.62 85 1015.4
20260508201340 59 315 2.0 4.0 0.00 0.62 0.62 85 1015.3
20260508201139 59 292 2.0 2.0 0.00 0.62 0.62 85 1015.3
20260508200738 60 292 2.0 4.0 0.00 0.62 0.62 85 1015.5
20260508200539 60 292 2.0 4.0 0.00 0.62 0.62 85 1015.4
20260508200340 60 315 2.0 4.0 0.00 0.62 0.62 85 1015.4
20260508200138 60 315 2.0 2.0 0.00 0.62 0.62 85 1015.6
20260508195940 60 315 2.0 4.0 0.00 0.62 0.62 85 1015.5
20260508195739 60 315 2.0 4.0 0.00 0.62 0.62 85 1015.5
20260508195544 60 315 2.0 4.0 0.00 0.62 0.62 84 1015.3
20260508195139 60 315 2.0 2.0 0.00 0.62 0.62 84 1015.4
20260508194937 60 292 2.0 2.0 0.00 0.62 0.62 84 1015.2
20260508194738 60 315 2.0 4.0 0.00 0.62 0.62 84 1015.3
20260508194543 60 292 2.0 4.0 0.00 0.62 0.62 84 1015.1
20260508194337 60 315 2.0 4.0 0.00 0.62 0.62 83 1015.2
20260508193940 60 292 3.0 4.0 0.00 0.62 0.62 83 1015.3
20260508193340 60 270 3.0 4.0 0.00 0.62 0.62 83 1015.3
20260508193138 60 270 3.0 4.0 0.00 0.62 0.62 83 1015.1
20260508192938 60 292 2.0 4.0 0.00 0.62 0.62 83 1015.2
20260508192740 60 292 2.0 4.0 0.00 0.62 0.62 83 1015.0
20260508192543 60 292 3.0 4.0 0.00 0.62 0.62 83 1015.1
20260508192339 61 292 2.0 2.0 0.00 0.62 0.62 83 1015.0
20260508192137 61 292 2.0 2.0 0.00 0.62 0.62 83 1015.1
20260508191737 61 292 1.0 2.0 0.00 0.62 0.62 82 1015.0
20260508191544 61 315 1.0 2.0 0.00 0.62 0.62 82 1014.9
20260508191137 61 315 1.0 2.0 0.00 0.62 0.62 82 1014.8
20260508190940 61 315 2.0 2.0 0.00 0.62 0.62 82 1014.8
20260508190739 61 315 2.0 2.0 0.00 0.62 0.62 81 1014.9
20260508190542 61 315 2.0 4.0 0.00 0.62 0.62 81 1014.7
20260508190338 61 292 2.0 4.0 0.00 0.62 0.62 81 1014.6
20260508190138 61 315 3.0 6.0 0.00 0.62 0.62 81 1014.5
20260508185737 61 315 4.0 8.0 0.00 0.62 0.62 82 1014.4
20260508185543 61 338 3.0 4.0 0.00 0.62 0.62 82 1014.5
20260508185339 61 315 2.0 4.0 0.00 0.62 0.62 82 1014.5
20260508185138 61 338 3.0 4.0 0.00 0.62 0.62 82 1014.3
20260508184737 62 315 3.0 4.0 0.00 0.62 0.62 81 1014.2
20260508184338 62 315 3.0 4.0 0.00 0.62 0.62 81 1014.3
20260508184137 62 315 2.0 4.0 0.00 0.62 0.62 81 1014.3
20260508183938 62 292 2.0 2.0 0.00 0.62 0.62 81 1014.2
20260508183738 62 292 3.0 4.0 0.00 0.62 0.62 81 1014.3
20260508183541 62 292 3.0 4.0 0.00 0.62 0.62 81 1014.1
20260508183138 62 292 2.0 4.0 0.00 0.62 0.62 81 1014.1
20260508182938 62 292 2.0 4.0 0.00 0.62 0.62 80 1014.1
20260508182737 62 292 3.0 4.0 0.00 0.62 0.62 80 1013.9
20260508182339 62 315 3.0 4.0 0.00 0.62 0.62 80 1013.9
20260508181738 62 292 3.0 4.0 0.00 0.62 0.62 80 1013.9
20260508181545 62 315 2.0 4.0 0.00 0.62 0.62 80 1013.8
20260508181338 62 292 3.0 4.0 0.00 0.62 0.62 80 1013.6
20260508180940 62 315 2.0 4.0 0.00 0.62 0.62 80 1013.5
20260508180739 62 315 3.0 7.0 0.00 0.62 0.62 79 1013.5
20260508180543 62 338 2.0 4.0 0.00 0.62 0.62 79 1013.5
20260508180345 62 338 2.0 4.0 0.00 0.62 0.62 79 1013.4
20260508180139 62 338 2.0 4.0 0.00 0.62 0.62 79 1013.5
20260508175938 62 315 3.0 4.0 0.00 0.62 0.62 79 1013.5
20260508175738 63 315 2.0 4.0 0.00 0.62 0.62 79 1013.4
20260508175544 63 315 2.0 4.0 0.00 0.62 0.62 79 1013.3
20260508175340 63 315 2.0 2.0 0.00 0.62 0.62 79 1013.5
20260508175138 63 315 2.0 4.0 0.00 0.62 0.62 79 1013.2
20260508174938 63 315 4.0 6.0 0.00 0.62 0.62 78 1013.5
20260508174738 63 292 4.0 7.0 0.00 0.62 0.62 78 1013.3
20260508174544 63 338 5.0 7.0 0.00 0.62 0.62 78 1013.3
20260508174137 63 315 4.0 7.0 0.00 0.62 0.62 78 1013.2
20260508173939 63 315 4.0 6.0 0.00 0.62 0.62 78 1013.2
20260508173738 63 315 4.0 6.0 0.00 0.62 0.62 78 1013.2
20260508173541 63 292 4.0 6.0 0.00 0.62 0.62 78 1013.2
20260508173336 63 315 4.0 7.0 0.00 0.62 0.62 78 1013.2
20260508172938 63 292 4.0 7.0 0.00 0.62 0.62 78 1013.3
20260508172737 63 338 4.0 6.0 0.00 0.62 0.62 78 1013.3
20260508172543 63 315 4.0 7.0 0.00 0.62 0.62 77 1013.3
20260508172337 63 292 4.0 9.0 0.00 0.62 0.62 78 1013.1
20260508172138 63 0 3.0 4.0 0.00 0.62 0.62 78 1013.3
20260508171938 63 315 3.0 4.0 0.00 0.62 0.62 77 1013.1
20260508171545 63 315 6.0 8.0 0.00 0.62 0.62 77 1013.2
20260508171338 63 338 4.0 6.0 0.00 0.62 0.62 77 1013.0
20260508171138 63 315 4.0 6.0 0.00 0.62 0.62 77 1013.2
20260508170938 64 292 3.0 6.0 0.00 0.62 0.62 77 1013.0
20260508170739 64 292 3.0 4.0 0.00 0.62 0.62 77 1013.1
20260508170542 64 270 6.0 9.0 0.00 0.62 0.62 77 1013.2
20260508170338 64 315 3.0 6.0 0.00 0.62 0.62 77 1013.1
20260508170137 64 315 8.0 11.0 0.00 0.62 0.62 76 1013.0
20260508165937 64 270 4.0 6.0 0.00 0.62 0.62 76 1012.7
20260508165338 64 292 3.0 4.0 0.00 0.62 0.62 76 1012.9
20260508165138 64 338 3.0 4.0 0.00 0.62 0.62 76 1012.6
20260508164938 64 315 4.0 7.0 0.00 0.62 0.62 75 1012.8
20260508164544 64 270 4.0 7.0 0.00 0.62 0.62 75 1012.6
20260508164338 64 315 4.0 7.0 0.00 0.62 0.62 75 1012.5
20260508164139 64 315 4.0 6.0 0.00 0.62 0.62 76 1012.5
20260508163541 64 292 7.0 11.0 0.00 0.62 0.62 75 1012.4
20260508163336 64 315 5.0 11.0 0.00 0.62 0.62 76 1012.4
20260508163138 64 315 5.0 9.0 0.00 0.62 0.62 76 1012.3
20260508162936 64 338 4.0 6.0 0.00 0.62 0.62 76 1012.5
20260508162738 64 292 7.0 11.0 0.00 0.62 0.62 76 1012.3
20260508162543 64 338 6.0 9.0 0.00 0.62 0.62 76 1012.6
20260508162337 64 292 4.0 6.0 0.00 0.62 0.62 76 1012.4
20260508161938 64 315 3.0 4.0 0.00 0.62 0.62 76 1012.4
20260508161738 64 292 5.0 8.0 0.00 0.62 0.62 76 1012.4
20260508161547 64 292 6.0 9.0 0.00 0.62 0.62 75 1012.6
20260508161338 64 270 4.0 7.0 0.00 0.62 0.62 76 1012.3
20260508161137 64 315 5.0 8.0 0.00 0.62 0.62 75 1012.4
20260508160939 64 315 4.0 9.0 0.00 0.62 0.62 75 1012.3
20260508160738 64 338 3.0 6.0 0.00 0.62 0.62 75 1012.4
20260508160541 64 292 4.0 9.0 0.00 0.62 0.62 75 1012.2
20260508160338 64 22 4.0 7.0 0.00 0.62 0.62 75 1012.2
20260508160138 64 338 4.0 6.0 0.00 0.62 0.62 75 1012.0
20260508155938 64 315 8.0 11.0 0.00 0.62 0.62 75 1012.1
20260508155739 64 338 4.0 8.0 0.00 0.62 0.62 75 1012.2
20260508155545 64 338 4.0 8.0 0.00 0.62 0.62 75 1012.1
20260508155337 64 292 5.0 8.0 0.00 0.62 0.62 75 1012.0
20260508154937 65 338 4.0 7.0 0.00 0.62 0.62 75 1012.0
20260508154738 65 292 8.0 13.0 0.00 0.62 0.62 74 1012.0
20260508154544 65 315 8.0 13.0 0.00 0.62 0.62 75 1012.1
20260508154337 65 315 4.0 6.0 0.00 0.62 0.62 75 1012.0
20260508154140 65 338 5.0 9.0 0.00 0.62 0.62 74 1011.8
20260508153739 65 292 7.0 11.0 0.00 0.62 0.62 75 1011.9
20260508153541 65 270 7.0 11.0 0.00 0.62 0.62 76 1011.8
20260508153337 65 315 6.0 11.0 0.00 0.62 0.62 76 1012.0
20260508152939 65 315 5.0 9.0 0.00 0.62 0.62 76 1011.8
20260508152544 65 338 8.0 11.0 0.00 0.62 0.62 75 1011.9
20260508152337 65 315 7.0 11.0 0.00 0.62 0.62 75 1011.8
20260508152138 65 315 5.0 11.0 0.00 0.62 0.62 76 1011.7
20260508151938 66 315 8.0 16.0 0.00 0.62 0.62 75 1011.7
20260508151739 66 315 5.0 8.0 0.00 0.62 0.62 76 1011.6
20260508151543 66 315 6.0 11.0 0.00 0.62 0.62 75 1011.9
20260508151338 67 338 7.0 13.0 0.00 0.62 0.62 75 1011.6
20260508151138 67 0 8.0 13.0 0.00 0.62 0.62 75 1011.5
20260508150941 67 270 8.0 13.0 0.00 0.62 0.62 75 1011.6
20260508150738 67 315 8.0 15.0 0.00 0.62 0.62 75 1011.7
20260508150543 66 315 6.0 11.0 0.00 0.62 0.62 76 1011.6
20260508150339 65 315 6.0 11.0 0.00 0.62 0.62 77 1011.5
20260508145938 64 315 4.0 7.0 0.00 0.62 0.62 78 1011.5
20260508145739 64 292 7.0 11.0 0.00 0.62 0.62 78 1011.7
20260508145544 64 315 7.0 11.0 0.00 0.62 0.62 78 1011.4
20260508145339 64 292 7.0 11.0 0.00 0.62 0.62 78 1011.6
20260508145138 64 315 5.0 11.0 0.00 0.62 0.62 78 1011.5
20260508144739 65 292 5.0 11.0 0.00 0.62 0.62 78 1011.5
20260508144544 65 315 5.0 9.0 0.00 0.62 0.62 78 1011.5
20260508144338 65 338 8.0 13.0 0.00 0.62 0.62 78 1011.6
20260508143939 66 270 4.0 8.0 0.00 0.62 0.62 78 1011.4
20260508143739 66 315 5.0 9.0 0.00 0.62 0.62 77 1011.3
20260508143542 66 315 4.0 8.0 0.00 0.62 0.62 76 1011.2
20260508143138 66 315 6.0 11.0 0.00 0.62 0.62 76 1011.2
20260508142939 66 292 8.0 14.0 0.00 0.62 0.62 76 1011.4
20260508142739 66 45 4.0 8.0 0.00 0.62 0.62 76 1011.4
20260508142338 66 292 4.0 11.0 0.00 0.62 0.62 76 1011.4
20260508142137 66 315 4.0 6.0 0.00 0.62 0.62 76 1011.2
20260508141337 66 292 5.0 8.0 0.00 0.62 0.62 77 1011.5
20260508140941 66 315 6.0 11.0 0.00 0.62 0.62 77 1011.4
20260508140739 65 292 5.0 9.0 0.00 0.62 0.62 77 1011.3
20260508140337 65 292 4.0 7.0 0.00 0.62 0.62 77 1011.3
20260508140138 65 292 6.0 11.0 0.00 0.62 0.62 77 1011.4
20260508135738 65 0 6.0 11.0 0.00 0.62 0.62 78 1011.4
20260508135545 65 315 6.0 8.0 0.00 0.62 0.62 78 1011.3
20260508135339 65 315 4.0 9.0 0.00 0.62 0.62 78 1011.4
20260508135138 65 315 7.0 13.0 0.00 0.62 0.62 78 1011.3
20260508134938 65 338 4.0 8.0 0.00 0.62 0.62 78 1011.3
20260508134740 65 315 4.0 7.0 0.00 0.62 0.62 78 1011.5
20260508134338 66 338 6.0 9.0 0.00 0.62 0.62 78 1011.4
20260508134138 66 315 8.0 13.0 0.00 0.62 0.62 78 1011.4
20260508133940 66 292 5.0 8.0 0.00 0.62 0.62 78 1011.2
20260508133738 66 315 5.0 8.0 0.00 0.62 0.62 78 1011.5
20260508133339 66 292 4.0 8.0 0.00 0.62 0.62 77 1011.4
20260508133138 67 292 6.0 11.0 0.00 0.62 0.62 76 1011.3
20260508132937 67 338 4.0 6.0 0.00 0.62 0.62 76 1011.1
20260508132740 67 315 7.0 13.0 0.00 0.62 0.62 75 1011.2
20260508132544 67 338 5.0 11.0 0.00 0.62 0.62 75 1011.4
20260508132338 67 292 7.0 11.0 0.00 0.62 0.62 75 1011.2
20260508132139 67 338 5.0 8.0 0.00 0.62 0.62 76 1011.2
20260508131939 67 338 5.0 8.0 0.00 0.62 0.62 76 1011.1
20260508131738 67 338 5.0 11.0 0.00 0.62 0.62 77 1011.1
20260508131545 67 315 3.0 7.0 0.00 0.62 0.62 77 1011.3
20260508131137 67 292 3.0 7.0 0.00 0.62 0.62 77 1011.2
20260508130737 67 315 3.0 6.0 0.00 0.62 0.62 77 1011.1
20260508130541 67 292 4.0 7.0 0.00 0.62 0.62 77 1011.1
20260508130338 67 292 4.0 6.0 0.00 0.62 0.62 77 1011.1
20260508130137 68 270 5.0 9.0 0.00 0.62 0.62 76 1011.1
20260508125937 68 68 4.0 6.0 0.00 0.62 0.62 76 1011.1
20260508125544 68 315 5.0 8.0 0.00 0.62 0.62 76 1011.2
20260508125337 68 315 5.0 9.0 0.00 0.62 0.62 76 1011.3
20260508125138 68 292 4.0 8.0 0.00 0.62 0.62 76 1011.1
20260508124938 68 338 4.0 8.0 0.00 0.62 0.62 76 1011.1
20260508124737 68 315 6.0 8.0 0.00 0.62 0.62 76 1011.2
20260508124337 67 292 4.0 6.0 0.00 0.62 0.62 78 1011.3
20260508124139 67 315 7.0 11.0 0.00 0.62 0.62 77 1011.2
20260508123939 67 315 7.0 11.0 0.00 0.62 0.62 77 1011.2
20260508123737 67 338 5.0 11.0 0.00 0.62 0.62 77 1011.2
20260508123541 67 292 4.0 8.0 0.00 0.62 0.62 78 1011.1
20260508123337 67 292 4.0 7.0 0.00 0.62 0.62 78 1011.3
20260508123138 67 292 4.0 6.0 0.00 0.62 0.62 78 1011.1
20260508122939 66 292 4.0 9.0 0.00 0.62 0.62 78 1011.2
20260508122738 66 0 6.0 9.0 0.00 0.62 0.62 78 1011.2
20260508122545 67 292 7.0 11.0 0.00 0.62 0.62 78 1011.2
20260508122137 67 292 6.0 9.0 0.00 0.62 0.62 79 1011.2
20260508121937 67 292 4.0 7.0 0.00 0.62 0.62 80 1011.2
20260508121738 67 315 4.0 7.0 1.07 0.62 0.62 80 1011.3
20260508121543 67 315 4.0 9.0 0.00 0.62 0.62 80 1011.2
20260508121339 67 292 5.0 9.0 0.00 0.62 0.62 80 1011.2
20260508121137 67 292 6.0 11.0 0.00 0.62 0.62 80 1011.2
20260508120737 66 338 7.0 13.0 0.00 0.62 0.62 81 1011.2
20260508120541 66 315 5.0 11.0 0.00 0.62 0.62 82 1011.3
20260508120339 66 315 5.0 11.0 0.00 0.62 0.62 82 1011.1
20260508120138 66 315 5.0 11.0 0.00 0.62 0.62 82 1011.2
20260508115937 66 292 4.0 8.0 0.00 0.62 0.62 83 1011.1
20260508115739 66 315 4.0 4.0 0.00 0.62 0.62 83 1011.1
20260508115542 66 315 5.0 8.0 0.00 0.62 0.62 83 1011.1
20260508115337 66 292 4.0 7.0 0.00 0.62 0.62 83 1011.3
20260508114547 66 315 5.0 7.0 0.00 0.62 0.62 83 1011.0
20260508114337 66 338 2.0 4.0 0.00 0.62 0.62 84 1011.1
20260508114137 66 292 4.0 6.0 0.00 0.62 0.62 84 1011.2
20260508113938 65 0 4.0 6.0 0.00 0.62 0.62 84 1011.2
20260508113737 65 292 4.0 6.0 0.00 0.62 0.62 84 1011.0
20260508113541 65 315 8.0 11.0 0.00 0.62 0.62 84 1011.2
20260508113337 65 292 5.0 8.0 0.00 0.62 0.62 84 1011.2
20260508112938 65 292 4.0 7.0 0.00 0.62 0.62 85 1011.2
20260508112737 65 292 6.0 9.0 0.00 0.62 0.62 85 1011.2
20260508112543 65 292 6.0 9.0 0.00 0.62 0.62 86 1011.2
20260508112336 64 270 4.0 7.0 0.00 0.62 0.62 87 1011.1
20260508112137 64 292 3.0 6.0 0.00 0.62 0.62 88 1011.0
20260508111937 53 292 7.0 8.0 0.00 0.00 0.00 54 1020.7
20260508111738 64 292 6.0 9.0 0.00 0.62 0.62 89 1011.1
20260508111545 64 315 4.0 7.0 0.00 0.62 0.62 90 1010.9
20260508111338 63 315 6.0 9.0 0.00 0.62 0.62 91 1010.9
20260508111137 63 292 4.0 8.0 0.00 0.62 0.62 92 1010.8
20260508110939 63 315 5.0 8.0 0.00 0.62 0.62 92 1010.9
20260508110738 63 292 3.0 4.0 0.00 0.62 0.62 93 1010.9
20260508110541 63 315 4.0 7.0 0.00 0.62 0.62 93 1011.0
20260508110337 63 338 4.0 6.0 0.00 0.62 0.62 93 1011.0
20260508110138 63 338 3.0 7.0 0.00 0.62 0.62 93 1011.0
20260508105739 63 315 2.0 6.0 0.00 0.62 0.62 93 1011.0
20260508105545 62 315 4.0 6.0 0.00 0.62 0.62 94 1011.0
20260508105338 62 315 4.0 8.0 0.00 0.62 0.62 94 1011.0